�������l�o���
Date,Time,MP-1(��Sv/h),MP-2(��Sv/h),MP-3(��Sv/h),MP-4(��Sv/h),MP-5(��Sv/h),MP-6(��Sv/h),MP-7(��Sv/h),MP-8(��Sv/h),����,����(m/s),���J
2020/07/01,00:00,0.670,0.949,0.618,1.158,0.833,0.400,0.676,0.633,��,8.6,�L
2020/07/01,00:10,0.671,0.951,0.618,1.159,0.833,0.399,0.676,0.631,��,7.3,�L
2020/07/01,00:20,0.669,0.950,0.617,1.159,0.831,0.399,0.672,0.633,��,6.3,�L
2020/07/01,00:30,0.670,0.948,0.618,1.159,0.832,0.400,0.675,0.632,��,6.3,�L
2020/07/01,00:40,0.668,0.948,0.617,1.157,0.831,0.399,0.673,0.632,��,8.5,�L
2020/07/01,00:50,0.669,0.946,0.618,1.158,0.834,0.398,0.675,0.632,��,9.4,�L
2020/07/01,01:00,0.669,0.947,0.619,1.159,0.832,0.399,0.673,0.633,��,8.7,�L
2020/07/01,01:10,0.667,0.945,0.618,1.157,0.831,0.398,0.674,0.631,��,8.3,�L
2020/07/01,01:20,0.666,0.945,0.619,1.157,0.830,0.398,0.674,0.631,��,9.0,�L
2020/07/01,01:30,0.666,0.946,0.619,1.158,0.829,0.399,0.673,0.630,��,8.9,�L
2020/07/01,01:40,0.665,0.942,0.618,1.157,0.828,0.397,0.673,0.632,��,8.5,�L
2020/07/01,01:50,0.666,0.946,0.617,1.155,0.830,0.397,0.674,0.631,��,7.7,�L
2020/07/01,02:00,0.668,0.943,0.617,1.155,0.830,0.397,0.673,0.630,��,9.1,�L
2020/07/01,02:10,0.666,0.943,0.617,1.157,0.828,0.397,0.672,0.632,��,9.6,�L
2020/07/01,02:20,0.664,0.940,0.617,1.153,0.827,0.397,0.674,0.630,��,9.6,�L
2020/07/01,02:30,0.666,0.942,0.616,1.152,0.826,0.397,0.672,0.630,��,9.1,�L
2020/07/01,02:40,0.666,0.941,0.614,1.153,0.827,0.398,0.672,0.630,��,8.9,�L
2020/07/01,02:50,0.663,0.940,0.615,1.154,0.826,0.395,0.671,0.629,��,8.5,�L
2020/07/01,03:00,0.663,0.940,0.614,1.152,0.828,0.397,0.672,0.629,��,7.3,�L
2020/07/01,03:10,0.664,0.940,0.614,1.154,0.825,0.397,0.672,0.631,��,5.5,�L
2020/07/01,03:20,0.664,0.940,0.613,1.149,0.825,0.395,0.671,0.629,��,6.3,�L
2020/07/01,03:30,0.662,0.934,0.613,1.148,0.822,0.395,0.670,0.629,��,7.7,�L
2020/07/01,03:40,0.660,0.924,0.607,1.138,0.813,0.392,0.667,0.625,��,8.5,�L
2020/07/01,03:50,0.651,0.917,0.606,1.125,0.805,0.391,0.663,0.622,��,5.9,�L
2020/07/01,04:00,0.650,0.912,0.605,1.115,0.800,0.391,0.664,0.624,��,6.8,�L
2020/07/01,04:10,0.653,0.913,0.604,1.114,0.803,0.390,0.662,0.623,��,7.5,�L
2020/07/01,04:20,0.655,0.917,0.606,1.118,0.804,0.390,0.661,0.623,��,8.0,�L
2020/07/01,04:30,0.652,0.914,0.605,1.115,0.804,0.391,0.661,0.623,��,7.7,�L
2020/07/01,04:40,0.657,0.917,0.606,1.116,0.806,0.393,0.663,0.622,��,7.7,�L
2020/07/01,04:50,0.656,0.918,0.606,1.119,0.808,0.394,0.664,0.624,��,9.6,�L
2020/07/01,05:00,0.658,0.921,0.605,1.118,0.807,0.393,0.664,0.623,��,10.5,�L
2020/07/01,05:10,0.659,0.920,0.603,1.113,0.800,0.392,0.661,0.623,��,8.6,�L
2020/07/01,05:20,0.647,0.910,0.602,1.107,0.797,0.392,0.659,0.620,��,8.3,�L
2020/07/01,05:30,0.647,0.905,0.601,1.104,0.792,0.390,0.660,0.620,��,8.6,�L
2020/07/01,05:40,0.649,0.908,0.601,1.104,0.794,0.391,0.659,0.621,��,8.2,�L
2020/07/01,05:50,0.651,0.907,0.602,1.105,0.797,0.391,0.659,0.619,��,8.4,�L
2020/07/01,06:00,0.651,0.907,0.603,1.104,0.793,0.393,0.658,0.621,��,8.6,�L
2020/07/01,06:10,0.651,0.904,0.603,1.104,0.791,0.391,0.659,0.619,��,9.2,�L
2020/07/01,06:20,0.651,0.906,0.601,1.103,0.793,0.393,0.659,0.620,��,10.3,�L
2020/07/01,06:30,0.653,0.907,0.602,1.105,0.791,0.392,0.659,0.620,��,10.5,�L
2020/07/01,06:40,0.656,0.913,0.604,1.111,0.796,0.395,0.661,0.622,��,9.0,�L
2020/07/01,06:50,0.656,0.916,0.602,1.114,0.796,0.393,0.661,0.622,��,9.6,�L
2020/07/01,07:00,0.657,0.914,0.602,1.113,0.797,0.393,0.662,0.621,��,9.1,��
2020/07/01,07:10,0.657,0.915,0.602,1.116,0.796,0.394,0.662,0.621,��,8.0,��
2020/07/01,07:20,0.658,0.919,0.601,1.118,0.799,0.393,0.663,0.623,��,9.2,��
2020/07/01,07:30,0.657,0.918,0.602,1.120,0.799,0.393,0.663,0.624,��,9.4,��
2020/07/01,07:40,0.657,0.918,0.601,1.120,0.800,0.394,0.663,0.624,��,7.0,��
2020/07/01,07:50,0.659,0.918,0.602,1.120,0.800,0.393,0.663,0.625,��,7.1,��
2020/07/01,08:00,0.657,0.921,0.601,1.120,0.802,0.394,0.665,0.623,��,4.6,��
2020/07/01,08:10,0.659,0.918,0.603,1.122,0.801,0.393,0.663,0.624,��,3.7,��
2020/07/01,08:20,0.657,0.919,0.603,1.125,0.800,0.392,0.665,0.622,��,2.9,��
2020/07/01,08:30,0.658,0.919,0.606,1.125,0.803,0.393,0.666,0.624,��,3.3,��
2020/07/01,08:40,0.659,0.919,0.605,1.124,0.803,0.394,0.663,0.626,��,3.1,��
2020/07/01,08:50,0.659,0.920,0.606,1.126,0.803,0.394,0.665,0.625,��,4.7,��
2020/07/01,09:00,0.659,0.919,0.607,1.128,0.803,0.393,0.665,0.623,��,5.0,��
2020/07/01,09:10,0.659,0.919,0.606,1.126,0.804,0.394,0.663,0.624,��,3.4,��
2020/07/01,09:20,0.659,0.922,0.608,1.128,0.805,0.395,0.664,0.624,��쓌,4.5,��
2020/07/01,09:30,0.660,0.922,0.604,1.129,0.805,0.394,0.666,0.625,��,6.3,��
2020/07/01,09:40,0.660,0.924,0.605,1.125,0.806,0.393,0.665,0.624,��,6.3,��
2020/07/01,09:50,0.661,0.923,0.607,1.127,0.808,0.394,0.666,0.626,��,6.8,��
2020/07/01,10:00,0.663,0.923,0.608,1.126,0.807,0.395,0.667,0.625,��,4.8,��
2020/07/01,10:10,0.664,0.925,0.608,1.129,0.808,0.394,0.667,0.626,��,4.4,��
2020/07/01,10:20,0.664,0.925,0.608,1.129,0.807,0.393,0.667,0.625,��,5.7,��
2020/07/01,10:30,0.663,0.928,0.609,1.129,0.801,0.395,0.667,0.627,��,6.5,��
2020/07/01,10:40,0.662,0.924,0.609,1.129,0.805,0.393,0.668,0.628,��,6.8,��
2020/07/01,10:50,0.664,0.928,0.609,1.128,0.810,0.394,0.668,0.626,��,6.3,��
2020/07/01,11:00,0.663,0.930,0.609,1.131,0.811,0.394,0.669,0.628,��,5.8,��
2020/07/01,11:10,0.663,0.931,0.610,1.131,0.812,0.395,0.667,0.627,��,6.6,��
2020/07/01,11:20,0.667,0.933,0.610,1.133,0.814,0.393,0.670,0.627,��,6.5,��
2020/07/01,11:30,0.665,0.932,0.613,1.131,0.815,0.393,0.670,0.628,��,5.3,��
2020/07/01,11:40,0.667,0.936,0.612,1.130,0.813,0.395,0.669,0.627,��,4.2,��
2020/07/01,11:50,0.665,0.936,0.612,1.136,0.815,0.394,0.671,0.629,��,5.2,��
2020/07/01,12:00,0.667,0.937,0.615,1.137,0.817,0.394,0.671,0.629,��,4.0,��
2020/07/01,12:10,0.667,0.936,0.611,1.137,0.818,0.396,0.670,0.628,��,4.5,��
2020/07/01,12:20,0.667,0.937,0.614,1.136,0.818,0.394,0.671,0.629,��,3.7,��
2020/07/01,12:30,0.667,0.938,0.613,1.136,0.817,0.395,0.672,0.629,��,3.9,��
2020/07/01,12:40,0.666,0.938,0.613,1.136,0.817,0.393,0.671,0.630,��,4.8,��
2020/07/01,12:50,0.667,0.938,0.613,1.137,0.818,0.394,0.670,0.630,��,5.8,��
2020/07/01,13:00,0.668,0.938,0.614,1.141,0.820,0.396,0.673,0.629,��,5.4,��
2020/07/01,13:10,0.668,0.936,0.615,1.138,0.819,0.394,0.671,0.630,��,6.4,��
2020/07/01,13:20,0.666,0.935,0.616,1.138,0.820,0.395,0.669,0.629,��,8.9,��
2020/07/01,13:30,0.665,0.937,0.615,1.137,0.819,0.395,0.670,0.629,��,8.9,��
2020/07/01,13:40,0.664,0.937,0.613,1.138,0.821,0.394,0.670,0.630,��,8.3,�L
2020/07/01,13:50,0.667,0.936,0.615,1.137,0.820,0.394,0.670,0.628,��,8.9,�L
2020/07/01,14:00,0.667,0.939,0.614,1.137,0.819,0.393,0.671,0.629,��,9.6,�L
2020/07/01,14:10,0.667,0.939,0.616,1.137,0.822,0.394,0.672,0.629,��,8.1,�L
2020/07/01,14:20,0.665,0.940,0.617,1.140,0.821,0.395,0.671,0.629,��,9.4,�L
2020/07/01,14:30,0.667,0.941,0.618,1.140,0.820,0.395,0.672,0.629,��,9.2,�L
2020/07/01,14:40,0.668,0.942,0.616,1.141,0.823,0.394,0.672,0.629,��,9.6,�L
2020/07/01,14:50,0.667,0.943,0.616,1.143,0.823,0.394,0.670,0.630,��,8.4,��
2020/07/01,15:00,0.666,0.942,0.615,1.142,0.821,0.395,0.671,0.629,��,10.0,��
2020/07/01,15:10,0.667,0.943,0.615,1.144,0.824,0.395,0.671,0.631,��,11.1,��
2020/07/01,15:20,0.666,0.944,0.615,1.142,0.824,0.394,0.671,0.630,��,10.9,��
2020/07/01,15:30,0.666,0.945,0.614,1.145,0.822,0.395,0.671,0.630,��쓌,11.3,��
2020/07/01,15:40,0.666,0.942,0.617,1.144,0.823,0.395,0.671,0.630,��,10.5,��
2020/07/01,15:50,0.666,0.943,0.616,1.143,0.822,0.394,0.671,0.630,��쓌,11.7,��
2020/07/01,16:00,0.666,0.944,0.617,1.145,0.822,0.396,0.669,0.630,��,11.6,��
2020/07/01,16:10,0.667,0.944,0.616,1.145,0.821,0.394,0.671,0.630,��쓌,11.4,��
2020/07/01,16:20,0.667,0.944,0.615,1.144,0.822,0.395,0.670,0.629,��,12.5,��
2020/07/01,16:30,0.665,0.943,0.612,1.144,0.822,0.394,0.669,0.629,��쓌,14.2,��
2020/07/01,16:40,0.665,0.947,0.614,1.144,0.822,0.395,0.669,0.630,��쓌,14.2,��
2020/07/01,16:50,0.666,0.942,0.616,1.144,0.823,0.395,0.670,0.629,��,12.4,��
2020/07/01,17:00,0.666,0.944,0.615,1.143,0.821,0.395,0.669,0.630,��,10.9,��
2020/07/01,17:10,0.665,0.946,0.614,1.145,0.822,0.396,0.670,0.631,��,12.7,��
2020/07/01,17:20,0.666,0.946,0.615,1.145,0.823,0.396,0.669,0.630,��,13.8,��
2020/07/01,17:30,0.665,0.946,0.615,1.144,0.822,0.394,0.670,0.630,��쓌,14.7,��
2020/07/01,17:40,0.665,0.946,0.613,1.145,0.822,0.396,0.668,0.630,��,10.8,��
2020/07/01,17:50,0.666,0.944,0.614,1.144,0.821,0.394,0.670,0.630,��,11.1,��
2020/07/01,18:00,0.665,0.944,0.615,1.147,0.824,0.396,0.670,0.629,��,11.6,��
2020/07/01,18:10,0.665,0.945,0.616,1.148,0.822,0.396,0.670,0.630,��,13.1,��
2020/07/01,18:20,0.666,0.947,0.615,1.147,0.824,0.395,0.671,0.630,��,12.4,��
2020/07/01,18:30,0.665,0.947,0.616,1.148,0.823,0.395,0.672,0.632,��,11.3,��
2020/07/01,18:40,0.667,0.945,0.616,1.146,0.821,0.396,0.670,0.630,��,11.0,��
2020/07/01,18:50,0.668,0.946,0.616,1.147,0.822,0.396,0.671,0.630,��,9.9,��
2020/07/01,19:00,0.668,0.946,0.619,1.147,0.823,0.397,0.671,0.631,��,9.2,��
2020/07/01,19:10,0.667,0.949,0.617,1.147,0.823,0.395,0.673,0.632,��,10.2,��
2020/07/01,19:20,0.667,0.947,0.616,1.148,0.823,0.395,0.672,0.633,��,10.2,��
2020/07/01,19:30,0.668,0.946,0.617,1.145,0.824,0.395,0.672,0.634,��,10.5,��
2020/07/01,19:40,0.667,0.945,0.617,1.146,0.824,0.397,0.673,0.632,��쐼,8.6,��
2020/07/01,19:50,0.666,0.945,0.616,1.147,0.826,0.396,0.673,0.633,��,8.0,��
2020/07/01,20:00,0.666,0.945,0.618,1.146,0.826,0.396,0.672,0.632,��쐼,6.9,��
2020/07/01,20:10,0.668,0.947,0.618,1.146,0.824,0.397,0.672,0.634,��쐼,6.5,��
2020/07/01,20:20,0.669,0.947,0.617,1.144,0.824,0.396,0.672,0.632,��쐼,6.8,��
2020/07/01,20:30,0.669,0.947,0.618,1.149,0.824,0.397,0.672,0.633,��쐼,5.9,��
2020/07/01,20:40,0.669,0.947,0.618,1.149,0.826,0.396,0.674,0.633,��쐼,6.2,��
2020/07/01,20:50,0.669,0.947,0.616,1.149,0.827,0.398,0.672,0.633,��,5.6,��
2020/07/01,21:00,0.669,0.947,0.620,1.149,0.825,0.396,0.672,0.635,��쐼,5.1,��
2020/07/01,21:10,0.670,0.947,0.620,1.147,0.827,0.397,0.673,0.632,��쐼,5.3,��
2020/07/01,21:20,0.670,0.949,0.618,1.147,0.826,0.396,0.672,0.634,��쐼,4.5,��
2020/07/01,21:30,0.668,0.946,0.618,1.149,0.828,0.396,0.673,0.634,��쐼,4.6,��
2020/07/01,21:40,0.671,0.948,0.617,1.146,0.827,0.397,0.672,0.632,��쐼,4.3,��
2020/07/01,21:50,0.670,0.948,0.618,1.147,0.827,0.397,0.671,0.632,��,3.5,��
2020/07/01,22:00,0.669,0.946,0.618,1.148,0.826,0.396,0.672,0.632,��,3.1,��
2020/07/01,22:10,0.668,0.947,0.619,1.148,0.827,0.396,0.672,0.636,��,3.6,��
2020/07/01,22:20,0.668,0.947,0.616,1.148,0.825,0.397,0.674,0.633,��,3.6,�L
2020/07/01,22:30,0.670,0.947,0.617,1.148,0.827,0.397,0.671,0.632,��,5.8,�L
2020/07/01,22:40,0.670,0.946,0.618,1.148,0.827,0.395,0.671,0.633,��,7.6,�L
2020/07/01,22:50,0.669,0.946,0.618,1.148,0.829,0.396,0.673,0.632,��,6.9,�L
2020/07/01,23:00,0.668,0.947,0.618,1.147,0.827,0.397,0.672,0.633,��,6.7,�L
2020/07/01,23:10,0.671,0.946,0.619,1.150,0.827,0.396,0.672,0.633,��,5.3,�L
2020/07/01,23:20,0.669,0.942,0.619,1.149,0.828,0.398,0.672,0.633,��,5.8,�L
2020/07/01,23:30,0.668,0.944,0.619,1.147,0.828,0.397,0.671,0.634,��,5.6,�L
2020/07/01,23:40,0.669,0.945,0.618,1.148,0.829,0.397,0.672,0.633,��,6.1,�L
2020/07/01,23:50,0.667,0.946,0.618,1.146,0.826,0.395,0.672,0.632,��,4.7,�L
